Home > Weather > Steyr > Past weeks

Flag for Austria Weather for the Past 2 Weeks in Steyr, Upper Austria, Austria

Now
51 °F

Cool.


Feels Like: 51 °F
Forecast: 49 / 71 °F
Wind: 2 mph from East

Location: Kremsmuenster

Current Time: May 6, 2016 at 10:05:46 AM

Latest Report: May 6, 2016 at 9:00 AM


Visibility: N/A

Pressure: 30.12 "Hg

Humidity: 80%

Dew Point: 45 °F

Location of SteyrLocation

Historic Weather in Steyr — Graph

°F

Steyr Temperature Yesterday

Maximum temperature yesterday: 57 °F (at 4:00 PM)
Minimum temperature yesterday: 44 °F (at 4:00 AM)
Average temperature yesterday: 49 °F

High & Low Weather Summary for the Past Weeks

 TemperatureHumidityPressure
High68 °F (Apr 22, 5:00 PM)94% (May 2, 1:00 AM)30.38 "Hg (May 2, 1:00 AM)
Low35 °F (Apr 27, 8:00 PM)25% (Apr 30, 4:00 PM)29.62 "Hg (Apr 23, 7:00 PM)
Average49 °F70%30.03 "Hg
* Reported Apr 21 9:00 AM — May 6 9:00 AM, Steyr, Weather by CustomWeather, © 2016

Note: Actual official high and low records may vary slightly from our data, if they occured in-between our weather recording intervals... More about our weather records

Advertising

Steyr Weather History for the Previous 24 Hours

Scroll right to see more
 ConditionsComfort  
Time TempWeatherWind HumidityBarometerVisibility
9:00 AM
Fri, May 6
51 °FCool.2 mph80%30.12 "HgN/A
8:00 AM46 °FPassing clouds.1 mph86%30.14 "Hg47 mi
7:00 AM42 °FQuite cool.2 mph93%30.15 "HgN/A
6:00 AM42 °FQuite cool.1 mph93%30.16 "HgN/A
5:00 AM42 °FQuite cool.3 mph93%30.16 "HgN/A
4:00 AM44 °FQuite cool.3 mph93%30.18 "HgN/A
3:00 AM45 °FQuite cool.2 mph92%30.19 "HgN/A
2:00 AM46 °FCool.3 mph91%30.20 "HgN/A
1:00 AMN/APassing clouds.25 mphN/AN/A3 mi
12:00 AM47 °FCool.3 mph90%30.22 "HgN/A
11:00 PM
Thu, May 5
N/APassing clouds.10 mphN/AN/A2 mi
10:00 PM50 °FCool.3 mph82%30.22 "HgN/A
9:00 PM53 °FCool.3 mph74%30.22 "HgN/A
8:00 PM55 °FPassing clouds.13 mph70%30.22 "Hg2 mi
7:00 PM55 °FCool.6 mph66%30.22 "HgN/A
6:00 PM56 °FCool.7 mph66%30.23 "HgN/A
5:00 PM57 °FPartly sunny.7 mph62%30.24 "Hg16 mi
4:00 PM57 °FCool.7 mph64%30.26 "HgN/A
3:00 PM57 °FCool.6 mph66%30.28 "HgN/A
2:00 PM55 °FCool.3 mph72%30.30 "HgN/A
1:00 PM51 °FCool.3 mph76%30.32 "HgN/A
12:00 PM49 °FCool.3 mph80%30.34 "HgN/A
11:00 AM48 °FOvercast.2 mph82%30.35 "Hg9 mi
10:00 AM47 °FCool.1 mph79%30.35 "HgN/A
Weather by CustomWeather, © 2016

See weather overviewHow to use our weather pages